Tracking 32968 objects as of 18-Jan-2026
HD Live streaming from Space Station
objects crossing your sky now

STARLINK-1338

Track STARLINK-1338 now!
10-day predictions


NORAD ID: 45532
Int'l Code: 2020-025B
Perigee: 436.7 km
Apogee: 443.0 km
Inclination: 53.1 °
Period: 93.2 minutes
Semi major axis: 6810 km
RCS: Unknown
Launch date: April 22, 2020
Source: United States (US)
Launch site: AIR FORCE EASTERN TEST RANGE (AFETR)
Your satellite tracking list
Your tracking list is empty




NASA's NSSDC Master Catalog

Two Line Element Set (TLE):
1 45532U 20025B   26017.29755242  .00132434  00000-0  27687-2 0  9999
2 45532  53.0558 331.1549 0004600  92.0373 268.1159 15.44538653317431
Source of the keplerian elements: AFSPC